Wind_Speed
40 38 38 37 37 36 35 34 33 32 31 30 29 28 28 27 27 26 26 26 25 25 24 23 23 22 21 21 20 20 20 19 19 19 18 18 18 18 17 17 16 16 16
42 41 40 39 38 38 37 36 35 34 33 32 31 30 29 29 28 28 28 28 27 27 26 25 24 24 23 22 22 21 21 21 20 20 20 20 20 20 19 19 18 18 18
44 43 42 42 40 39 39 38 37 36 35 34 33 32 32 31 30 30 30 30 29 29 29 27 26 25 25 24 24 23 23 23 22 21 21 21 21 21 21 21 21 20 20
46 45 45 44 43 41 41 40 40 38 37 37 36 35 34 33 32 32 31 31 31 31 31 30 28 27 26 26 26 25 25 24 24 23 23 23 22 22 22 22 22 22 22
47 46 45 44 42 42 41 41 41 40 38 38 37 36 36 35 34 34 33 32 32 32 32 31 30 29 27 28 27 27 27 26 25 24 24 24 23 23 23 23 23 23 23
47 47 47 45 44 43 42 42 42 41 40 39 38 37 37 36 35 35 34 33 33 33 33 32 32 30 29 28 28 28 28 28 27 26 26 25 25 25 24 24 24 24 24
49 48 48 47 45 44 43 42 42 41 41 41 40 39 38 38 37 36 36 35 34 34 34 33 32 32 31 30 29 29 29 29 28 28 28 27 27 26 26 26 26 26 25
49 48 48 47 46 46 45 43 43 43 42 42 42 41 40 39 38 38 37 36 36 35 35 35 34 33 33 32 31 31 30 30 30 29 29 29 29 28 28 28 28 28 28
48 48 48 47 47 47 45 44 44 44 43 42 42 42 41 40 39 39 37 37 36 36 36 36 36 35 34 34 34 33 33 32 32 32 32 31 31 31 30 30 30 30 30
46 47 48 48 48 47 47 45 45 44 44 43 43 42 42 41 41 40 39 38 37 37 37 37 37 37 36 36 36 36 36 35 35 33 33 33 33 32 32 32 33 32 32
45 47 47 47 48 47 46 45 44 44 43 43 43 42 42 42 42 42 41 39 38 38 38 38 38 38 38 37 37 37 37 37 37 36 35 34 34 34 34 34 34 34 34
45 47 46 46 47 47 46 45 44 44 44 43 44 43 43 43 43 43 42 40 39 39 39 39 39 39 38 38 38 38 39 38 38 37 37 36 36 36 36 36 35 35 35
45 46 47 47 47 46 46 46 44 45 45 44 44 44 43 43 43 43 43 42 41 41 40 40 40 40 40 40 40 40 40 40 40 39 39 39 39 39 38 38 38 38 37
43 43 45 46 47 47 47 47 46 45 45 46 45 44 44 43 42 44 44 43 43 42 41 40 41 41 41 41 41 42 41 40 40 40 41 40 41 41 41 40 40 40 39
43 43 43 45 46 47 48 48 48 47 46 45 45 45 45 44 43 44 44 44 44 43 42 42 42 42 42 42 42 42 42 42 42 41 41 41 43 43 43 42 42 42 41
43 44 43 45 47 47 47 48 49 48 47 46 46 46 46 45 45 45 45 45 45 45 44 43 43 43 43 43 43 43 42 42 42 43 43 43 44 45 44 44 44 43 43
43 43 44 45 47 48 48 48 49 49 48 47 47 47 47 46 46 46 46 46 46 46 46 46 45 44 44 44 44 44 43 43 43 44 44 44 44 45 45 45 45 45 45
44 45 45 46 48 49 49 48 49 49 49 49 50 50 50 49 48 47 48 47 47 47 47 46 45 44 45 44 44 45 45 45 44 45 45 45 44 45 46 46 46 46 46
44 46 46 46 46 47 48 49 50 50 50 50 50 51 50 50 49 48 48 48 47 47 47 47 46 46 46 46 46 46 46 47 46 47 46 45 45 46 47 47 46 46 46
43 44 45 46 46 46 47 49 50 50 50 49 49 49 49 50 49 49 48 48 48 47 48 48 48 48 48 47 47 46 46 47 48 48 48 46 46 46 47 47 47 46 46
43 44 45 46 47 47 47 48 49 49 49 49 50 49 49 49 49 49 48 48 49 49 49 49 49 49 49 48 47 47 47 48 49 49 49 48 47 47 47 47 47 47 46
44 44 44 46 47 47 48 49 50 50 49 50 50 50 51 50 50 50 49 49 49 48 49 49 49 49 49 49 48 48 48 48 48 49 49 48 48 47 46 47 47 47 47
44 44 43 45 45 46 46 48 49 49 50 50 50 50 50 51 51 50 50 51 50 49 49 49 49 49 50 50 49 49 49 49 49 50 50 48 47 47 47 47 47 48 48
42 43 43 44 44 44 45 46 48 49 49 49 49 49 50 50 50 50 50 50 50 50 50 51 51 50 50 51 51 50 50 50 49 49 49 49 48 47 47 47 47 48 48
41 42 42 42 43 43 45 45 46 48 48 48 49 48 48 49 49 50 50 51 50 49 50 51 51 51 51 51 51 51 50 50 49 49 50 50 49 49 47 47 47 48 48
40 40 41 41 41 41 43 44 45 46 47 48 48 48 49 49 49 49 50 50 50 50 50 51 52 52 51 51 51 51 50 49 49 49 50 51 50 50 49 48 48 49 49
Wind_Direction
244 244 245 246 246 245 244 245 245 246 246 247 248 249 249 249 250 250 250 251 251 252 254 255 257 259 261 262 264 266 268 268 268 268 268 270 274 276 279 281 280 282 286
244 244 246 246 246 244 245 246 246 247 247 247 248 248 249 249 250 251 251 251 251 251 252 254 257 258 259 262 264 267 268 269 269 268 269 270 273 275 278 279 281 282 283
244 244 246 246 246 244 245 246 246 246 248 248 248 248 248 249 250 251 252 252 252 251 252 254 258 258 260 262 264 267 267 267 268 268 269 270 271 273 275 276 279 281 283
245 245 245 245 244 244 245 246 246 246 248 248 248 248 248 248 250 251 251 252 253 252 253 254 257 259 260 262 264 266 267 267 267 267 268 269 271 272 274 275 277 280 284
246 246 246 244 243 243 244 245 245 245 246 247 248 248 247 248 249 250 251 252 252 252 253 255 256 259 260 261 263 265 266 267 268 267 267 268 270 272 274 275 277 279 282
246 246 245 244 243 243 243 245 245 245 246 246 247 247 248 248 250 250 251 252 252 253 254 255 256 258 260 261 263 264 265 266 266 267 267 268 269 271 273 275 277 280 281
245 244 244 243 243 243 244 246 246 247 247 246 246 247 248 248 250 251 251 252 252 253 254 254 257 258 259 261 263 263 264 265 266 267 267 267 268 270 272 275 277 279 281
244 244 243 242 241 242 243 245 246 247 247 248 248 248 248 248 248 250 251 252 253 253 254 254 256 258 260 261 263 263 264 264 266 266 267 266 267 270 272 274 276 278 281
242 242 242 241 241 242 244 245 246 246 247 247 248 248 248 247 247 248 250 252 253 252 253 255 256 258 260 262 263 263 263 264 264 265 266 267 267 268 270 272 274 276 279
242 242 242 241 241 242 243 245 245 246 246 247 247 247 247 247 247 247 249 251 251 251 252 254 256 258 261 262 263 264 263 263 263 263 264 266 267 268 269 270 273 275 277
242 242 242 240 240 240 242 243 244 244 245 246 246 246 246 247 248 248 248 249 251 252 252 254 256 258 259 261 262 262 263 263 263 263 263 265 266 269 270 271 272 273 275
242 242 242 241 241 240 241 242 243 244 244 245 246 246 247 247 248 248 247 248 251 253 254 256 257 258 259 261 262 262 262 263 264 264 264 265 266 268 269 270 272 274 276
242 242 242 241 240 240 241 242 243 244 243 244 245 245 247 248 248 248 248 249 251 254 255 256 258 260 261 261 261 261 262 263 262 263 264 265 267 268 269 270 272 274 275
242 241 241 240 239 240 241 243 243 243 243 244 244 245 246 248 249 249 249 250 251 253 255 257 258 260 261 262 261 260 261 262 262 263 264 265 266 268 269 270 271 273 274
240 241 242 240 240 240 240 242 244 244 244 244 245 245 246 247 249 250 251 251 252 253 255 258 259 261 262 262 261 261 261 262 263 263 264 265 266 267 269 270 271 273 274
243 243 242 240 240 241 241 242 244 245 245 245 245 246 247 248 249 250 251 252 254 255 256 258 260 260 261 261 261 262 262 263 263 264 265 265 266 267 269 270 271 273 273
245 244 243 241 242 242 243 244 244 244 244 245 246 247 248 249 249 251 252 253 255 256 257 258 259 259 259 260 261 262 262 264 264 265 266 267 267 268 269 271 272 273 273
245 244 244 243 243 243 244 244 245 245 245 246 248 248 249 250 252 253 254 254 256 258 258 259 259 259 260 261 262 263 264 265 265 265 266 267 267 269 269 271 271 272 273
246 246 246 246 246 245 245 245 246 247 247 248 249 249 250 252 253 254 255 255 256 257 257 258 259 260 261 262 263 264 265 265 265 265 266 267 268 268 269 271 272 272 272
249 248 247 247 247 247 246 246 247 247 247 248 249 249 250 252 253 254 255 255 255 256 257 259 260 261 263 263 264 265 265 265 265 265 266 267 268 268 269 270 271 272 272
250 249 249 248 247 247 247 247 247 247 248 248 248 248 249 251 252 253 254 254 255 257 258 259 260 261 263 264 265 266 266 266 265 265 265 267 268 268 269 270 270 271 272
252 251 251 250 248 248 248 247 247 248 248 248 248 250 249 250 252 253 253 254 255 258 259 259 260 262 263 264 265 266 267 267 266 264 265 267 268 269 269 270 270 271 271
254 254 252 251 250 249 248 248 248 248 248 249 249 250 250 250 251 252 254 255 256 257 259 260 261 261 263 264 264 265 266 267 267 267 267 267 269 270 270 270 271 271 272
255 253 252 251 251 250 249 249 249 248 249 248 248 248 249 250 251 252 254 255 256 258 259 260 260 262 263 264 265 267 267 268 267 268 268 268 267 269 269 270 270 270 271
255 253 252 252 251 251 250 250 250 250 249 249 249 249 250 251 252 254 255 255 256 258 260 261 262 264 264 264 265 266 267 268 268 268 268 267 267 267 268 269 269 270 272
254 253 252 252 252 251 251 252 251 251 250 250 250 250 251 252 253 255 256 256 258 260 261 261 262 264 264 264 264 265 266 267 267 267 266 266 266 267 266 267 268 270 271
Height
5768 5771 5774 5778 5780 5783 5786 5789 5791 5793 5796 5798 5800 5802 5804 5806 5808 5810 5811 5813 5814 5816 5818 5819 5820 5822 5822 5823 5824 5825 5825 5825 5826 5826 5826 5826 5826 5826 5826 5826 5825 5825 5824
5759 5762 5765 5769 5772 5775 5778 5781 5784 5786 5788 5791 5793 5796 5798 5800 5802 5803 5805 5807 5808 5810 5812 5813 5815 5816 5817 5818 5819 5820 5820 5821 5821 5821 5821 5822 5822 5822 5822 5822 5821 5821 5820
5748 5752 5756 5759 5763 5766 5769 5772 5775 5778 5780 5783 5786 5788 5791 5793 5795 5797 5799 5800 5802 5804 5805 5807 5808 5810 5811 5812 5813 5814 5815 5815 5816 5816 5816 5817 5817 5817 5817 5817 5817 5816 5816
5737 5741 5745 5749 5753 5756 5760 5763 5767 5769 5772 5775 5777 5780 5783 5785 5788 5790 5792 5794 5795 5797 5799 5800 5802 5803 5805 5806 5807 5808 5809 5809 5810 5810 5811 5811 5812 5812 5812 5812 5812 5811 5811
5725 5730 5734 5738 5742 5746 5750 5754 5757 5760 5763 5766 5769 5772 5774 5777 5780 5782 5784 5786 5788 5790 5792 5793 5795 5796 5798 5799 5800 5801 5802 5803 5804 5804 5805 5805 5806 5806 5806 5806 5806 5806 5805
5713 5717 5722 5726 5730 5735 5739 5743 5747 5750 5753 5757 5760 5763 5766 5769 5771 5774 5776 5778 5780 5782 5784 5786 5788 5789 5790 5792 5793 5794 5795 5796 5797 5798 5799 5799 5800 5800 5800 5800 5800 5800 5799
5700 5705 5709 5714 5718 5724 5728 5733 5737 5740 5743 5747 5751 5754 5757 5760 5762 5765 5767 5770 5772 5774 5776 5778 5780 5782 5783 5784 5786 5787 5788 5789 5790 5791 5791 5792 5793 5793 5793 5794 5793 5793 5793
5688 5692 5697 5702 5707 5712 5717 5722 5726 5730 5733 5737 5741 5744 5747 5751 5753 5756 5759 5761 5764 5766 5768 5770 5772 5774 5775 5777 5778 5779 5780 5781 5782 5783 5784 5785 5785 5786 5786 5786 5786 5786 5786
5676 5681 5686 5691 5696 5701 5706 5711 5715 5719 5723 5726 5730 5734 5737 5741 5744 5747 5749 5752 5755 5757 5759 5761 5763 5765 5767 5768 5769 5771 5772 5773 5774 5775 5776 5776 5777 5778 5778 5779 5779 5779 5779
5665 5669 5674 5680 5685 5691 5696 5700 5704 5708 5712 5716 5719 5723 5727 5731 5734 5737 5740 5743 5745 5748 5750 5752 5754 5756 5758 5759 5760 5761 5762 5763 5765 5766 5767 5768 5769 5769 5770 5770 5770 5771 5771
5654 5658 5663 5668 5674 5680 5685 5689 5693 5697 5702 5706 5709 5713 5716 5720 5723 5727 5731 5733 5736 5738 5740 5742 5744 5746 5748 5749 5750 5751 5752 5754 5755 5757 5758 5759 5760 5760 5761 5761 5761 5761 5761
5642 5647 5652 5657 5663 5669 5674 5679 5683 5687 5691 5695 5699 5702 5706 5709 5713 5716 5720 5723 5726 5728 5730 5732 5734 5736 5737 5739 5740 5741 5742 5744 5745 5747 5748 5749 5750 5750 5751 5751 5751 5752 5752
5631 5636 5642 5647 5652 5657 5663 5668 5672 5676 5680 5685 5689 5692 5696 5699 5702 5705 5709 5712 5715 5717 5720 5722 5723 5725 5727 5728 5729 5730 5732 5733 5735 5736 5737 5738 5739 5740 5741 5741 5741 5741 5742
5620 5625 5631 5636 5641 5646 5651 5656 5661 5665 5669 5673 5677 5681 5685 5688 5691 5695 5698 5701 5704 5707 5709 5711 5713 5714 5716 5717 5718 5719 5721 5722 5723 5725 5726 5727 5728 5729 5729 5730 5730 5730 5731
5610 5615 5620 5625 5630 5635 5640 5645 5650 5654 5658 5662 5666 5670 5674 5677 5680 5684 5686 5690 5693 5696 5698 5700 5701 5703 5704 5705 5706 5708 5709 5710 5712 5713 5714 5715 5716 5717 5717 5718 5718 5718 5718
5600 5605 5609 5614 5619 5624 5629 5633 5638 5642 5647 5651 5655 5659 5663 5666 5669 5672 5675 5678 5680 5684 5686 5689 5690 5691 5692 5693 5695 5696 5697 5699 5700 5701 5702 5703 5704 5704 5705 5705 5706 5706 5706
5590 5594 5598 5603 5608 5613 5617 5622 5626 5630 5635 5639 5643 5647 5651 5654 5657 5660 5663 5666 5668 5671 5674 5676 5677 5678 5680 5681 5683 5684 5686 5687 5688 5689 5690 5690 5691 5691 5692 5692 5693 5693 5694
5579 5583 5587 5592 5596 5601 5605 5610 5614 5618 5622 5627 5631 5635 5638 5642 5645 5648 5650 5653 5656 5659 5661 5664 5665 5666 5667 5669 5670 5672 5673 5675 5676 5677 5677 5678 5678 5679 5679 5680 5680 5680 5681
5569 5572 5576 5580 5584 5588 5593 5597 5601 5605 5609 5614 5618 5622 5626 5629 5632 5635 5638 5641 5643 5646 5648 5650 5652 5653 5655 5656 5658 5660 5661 5662 5663 5664 5664 5665 5666 5666 5666 5667 5667 5667 5667
5558 5561 5565 5568 5572 5575 5579 5583 5588 5592 5596 5600 5604 5608 5612 5616 5619 5622 5624 5627 5630 5632 5635 5637 5639 5640 5642 5643 5645 5647 5648 5649 5650 5650 5651 5652 5653 5653 5654 5654 5655 5654 5654
5547 5550 5553 5556 5559 5563 5567 5570 5574 5578 5582 5586 5590 5594 5598 5602 5605 5608 5611 5614 5617 5619 5621 5623 5626 5627 5629 5630 5632 5634 5635 5636 5636 5637 5638 5640 5640 5640 5640 5640 5641 5641 5641
5536 5539 5541 5544 5547 5550 5554 5558 5561 5565 5569 5573 5576 5580 5585 5588 5592 5595 5598 5601 5603 5606 5608 5610 5613 5615 5616 5617 5618 5619 5621 5622 5624 5625 5625 5627 5626 5627 5627 5627 5627 5627 5627
5524 5526 5529 5531 5534 5538 5541 5544 5548 5551 5555 5559 5563 5567 5571 5575 5578 5582 5584 5587 5590 5592 5594 5597 5599 5601 5603 5604 5605 5606 5607 5608 5610 5610 5611 5613 5613 5614 5614 5614 5613 5613 5613
5513 5515 5517 5519 5522 5525 5528 5531 5534 5537 5541 5545 5549 5553 5557 5561 5564 5568 5571 5574 5576 5579 5581 5583 5586 5588 5589 5590 5591 5592 5592 5594 5595 5596 5596 5598 5599 5600 5600 5600 5600 5599 5599
5501 5503 5505 5508 5510 5513 5515 5518 5520 5524 5528 5532 5535 5539 5543 5547 5551 5554 5557 5560 5563 5565 5566 5569 5571 5572 5574 5575 5576 5577 5579 5580 5581 5583 5582 5584 5585 5585 5586 5586 5585 5585 5585
5490 5492 5494 5496 5499 5501 5503 5505 5507 5511 5515 5519 5523 5526 5530 5533 5537 5539 5543 5546 5549 5551 5553 5555 5557 5558 5559 5560 5561 5563 5564 5565 5566 5568 5568 5569 5570 5570 5572 5572 5572 5571 5571